Temperature
13 13 14 14 15 15 17 19 21 23 24 25 25 25 24 24 25 23 22 22 21 22 21 21 20 19 19 19 19 18 18 18 18 18 18 17 17 17 17 17 16 16 16 16 15 15 15 15 15
13 13 14 15 15 16 18 20 21 22 23 24 24 24 24 24 25 24 22 21 21 21 21 20 19 19 18 18 18 18 18 18 18 17 17 17 17 17 16 16 16 16 15 15 15 15 15 15 15
12 13 14 15 15 16 19 21 22 23 23 23 23 23 23 24 24 23 22 21 20 20 20 20 19 18 18 17 17 17 17 17 17 17 17 17 16 16 16 16 16 15 15 15 15 15 14 15 15
12 13 14 14 15 18 19 21 21 22 23 23 23 23 23 23 23 22 21 20 20 19 19 19 18 18 17 17 17 17 17 17 17 17 17 16 16 16 16 15 15 15 15 15 15 14 15 14 14
12 13 13 14 15 17 19 21 21 21 21 22 22 21 22 22 22 21 21 20 19 19 19 18 18 17 17 17 17 17 17 17 17 16 16 16 16 16 15 15 15 15 15 14 14 14 14 14 14
12 13 13 14 16 18 19 20 20 20 20 21 21 20 21 21 21 20 20 19 19 19 18 18 18 17 17 17 17 16 16 16 16 16 16 16 16 15 15 15 15 15 14 14 14 14 14 14 14
12 12 13 14 15 16 18 19 19 18 18 19 19 19 20 20 19 19 19 19 18 18 18 17 17 17 17 16 16 16 16 16 16 16 16 16 15 15 15 15 14 14 14 14 14 13 13 13 13
11 12 12 13 14 15 17 17 17 17 17 17 18 17 18 18 17 17 17 18 18 17 17 17 17 16 16 16 16 16 16 16 16 16 16 15 15 15 15 14 14 14 13 13 13 13 13 13 13
10 10 11 12 13 14 15 15 15 15 15 16 16 16 16 16 16 16 16 16 17 17 17 17 16 16 16 16 16 16 16 16 16 16 15 15 15 14 14 14 14 13 13 13 13 13 13 13 13
10 9 11 13 13 13 13 13 13 14 14 14 15 15 15 15 15 15 15 15 16 16 16 16 16 16 16 16 16 16 16 16 15 15 15 15 14 14 14 14 13 13 13 12 12 12 12 12 12
11 10 11 12 12 12 11 11 12 12 12 13 14 14 14 14 14 14 14 14 15 15 15 16 16 15 15 15 16 15 15 15 15 15 15 15 14 14 13 13 13 13 12 12 12 12 12 12 12
10 10 11 11 11 10 10 10 10 11 12 12 13 13 13 13 13 13 13 13 14 14 15 15 15 15 15 15 15 15 15 15 15 15 15 14 14 13 13 13 13 12 12 12 12 12 11 11 11
9 10 10 10 10 10 10 10 10 10 11 12 12 12 12 12 12 13 13 13 13 14 14 15 15 15 15 15 15 15 15 15 15 15 14 14 14 14 13 13 13 12 12 12 12 11 11 11 11
9 9 9 9 9 9 9 10 10 11 11 11 12 12 12 12 12 12 13 13 13 13 14 14 14 14 14 14 14 15 15 15 14 14 14 14 14 14 13 13 12 12 12 11 11 11 11 11 11
8 8 8 9 10 10 10 9 10 11 11 12 12 12 12 12 12 12 12 12 12 13 13 13 14 14 14 14 14 14 14 14 14 14 14 14 14 14 13 13 12 12 12 11 11 11 10 10 10
8 8 7 10 10 10 9 8 10 11 11 11 12 12 12 12 12 12 12 12 12 12 13 13 13 13 13 14 14 14 14 14 14 14 14 14 14 13 13 13 12 12 11 11 11 11 10 10 10
7 7 7 9 10 10 9 8 10 11 11 11 11 11 11 11 12 12 12 12 12 12 12 12 13 13 13 13 13 13 14 14 14 14 14 14 14 13 13 13 13 12 11 11 11 11 11 11 10
6 6 7 7 9 9 8 8 9 11 11 10 10 10 10 11 11 11 11 11 11 11 12 12 12 12 12 13 13 13 13 13 14 13 13 13 13 13 13 13 12 12 11 11 11 11 10 10 10
7 6 6 7 9 8 8 8 9 10 10 9 10 9 10 10 10 11 11 11 11 11 11 11 11 11 12 12 12 13 13 13 13 13 13 13 13 13 13 13 12 12 12 11 11 11 10 10 10
7 6 6 7 9 8 7 8 8 9 9 9 9 9 9 9 9 10 10 10 10 10 10 10 11 11 11 12 12 12 13 13 13 13 13 13 13 13 13 13 13 12 12 11 11 11 10 10 10
6 6 6 6 7 7 7 7 8 9 9 9 9 8 8 8 9 9 9 9 9 10 10 10 10 11 11 11 12 12 12 12 12 13 13 13 13 13 13 13 13 12 12 12 11 11 11 10 10
5 7 7 6 5 5 6 5 7 8 8 8 8 8 7 7 7 8 8 8 9 9 9 9 10 10 11 11 11 12 12 12 12 12 13 12 12 13 13 13 13 12 12 12 11 11 11 11 10
6 7 6 6 5 4 5 5 6 7 7 7 7 7 7 6 6 7 7 8 8 8 9 9 9 10 11 11 11 12 12 12 12 12 12 12 12 12 13 13 12 12 12 12 11 11 11 11 11
7 6 6 6 5 4 6 6 5 6 6 6 6 6 6 6 6 6 7 7 7 8 8 9 9 10 10 10 11 11 12 12 12 12 12 12 12 12 12 12 12 12 12 12 12 12 11 11 11
6 3 3 3 3 4 7 6 5 6 6 6 6 6 6 5 5 6 6 6 7 7 7 8 8 9 10 10 10 11 11 11 12 12 12 11 11 12 12 12 12 12 12 12 12 12 11 11 11
4 4 2 2 3 5 6 6 6 7 7 7 6 6 5 5 5 5 5 5 6 6 6 7 8 8 9 10 10 11 11 11 11 11 12 11 12 12 12 12 12 12 12 12 12 12 12 11 11
4 4 4 3 2 3 5 6 6 7 6 6 5 5 5 5 5 4 4 5 5 6 6 6 7 8 9 9 10 10 10 11 11 11 11 11 12 12 12 12 12 12 12 12 11 11 12 11 11
5 4 3 2 2 2 4 4 4 5 5 5 5 4 4 4 4 4 4 4 4 5 5 6 7 7 8 9 9 10 10 10 11 11 11 11 11 12 12 12 12 11 11 11 11 11 11 11 11
4 3 3 2 2 2 2 3 5 4 4 4 4 4 4 4 3 4 4 4 4 4 5 5 6 7 7 8 9 9 10 10 10 11 11 11 11 12 12 12 11 11 11 11 11 11 11 11 11
4 3 2 1 1 2 2 3 6 5 5 4 4 4 4 4 3 3 3 3 3 4 4 5 6 6 7 8 8 9 9 10 10 11 11 11 11 12 12 12 11 11 11 11 11 11 11 11 11
Wind_Speed
14 12 8 3 5 8 15 13 12 10 9 6 4 5 7 8 5 0 4 4 8 12 16 20 20 20 20 20 21 21 21 22 21 21 20 21 21 20 20 20 19 19 19 18 18 18 18 18 17
13 9 5 4 7 12 13 15 17 13 11 7 5 6 8 8 6 3 4 5 7 10 14 18 20 20 20 20 20 21 21 22 22 21 21 21 21 21 20 20 19 19 19 19 18 18 18 17 17
12 9 4 5 10 15 11 6 7 8 8 9 7 6 7 6 5 2 5 6 5 8 12 17 21 20 21 20 20 21 22 22 22 22 21 21 21 21 20 20 20 19 19 19 19 18 18 17 16
5 3 5 10 20 19 15 12 11 12 9 8 7 6 5 5 3 3 7 5 4 5 9 17 21 20 20 21 21 21 22 23 23 23 22 22 22 21 21 20 20 20 20 19 19 18 18 17 16
3 4 8 14 23 20 17 15 14 15 13 10 8 9 9 5 3 4 4 4 2 2 6 15 21 21 20 20 21 22 23 23 24 23 23 23 22 21 21 21 21 20 20 20 19 18 18 17 16
4 4 9 17 20 18 15 13 14 15 13 11 10 11 10 5 4 3 3 1 1 2 5 12 20 21 21 21 21 22 23 23 24 24 24 23 23 22 22 21 21 21 20 20 19 18 18 16 15
5 6 13 18 19 17 15 12 12 12 14 12 9 12 9 5 5 7 5 3 2 2 5 8 14 18 20 21 21 22 23 23 24 24 24 23 23 22 22 22 21 21 21 20 19 19 18 16 15
4 5 12 15 17 17 12 12 13 13 13 10 8 8 8 8 10 9 8 5 4 2 4 8 9 13 15 17 20 21 22 23 23 23 23 22 22 22 22 22 21 21 21 20 19 18 17 15 14
3 7 13 14 14 14 13 16 17 15 13 13 11 12 10 10 9 9 8 6 4 4 3 7 8 10 12 14 18 20 21 22 22 21 22 22 19 19 19 20 21 22 21 20 19 18 17 15 13
5 9 14 12 13 16 18 18 18 14 17 15 15 12 10 9 9 9 9 8 7 5 5 6 8 8 10 12 13 13 16 17 18 18 20 18 17 17 18 21 21 21 21 20 19 18 17 14 11
7 11 14 15 16 17 19 19 18 18 19 18 16 14 12 11 11 11 11 10 9 8 7 8 9 9 9 9 10 9 10 12 15 18 19 17 15 14 15 14 16 18 19 16 17 15 12 11 10
10 15 16 16 16 17 19 18 19 20 20 17 17 15 14 15 14 13 13 13 11 10 10 9 9 10 9 8 10 10 9 10 10 15 19 14 10 10 11 9 11 13 12 12 12 9 9 11 11
12 14 15 15 17 17 20 20 20 22 19 18 18 15 15 16 16 15 14 13 13 13 11 10 9 11 10 9 9 11 11 11 13 14 16 16 11 12 11 10 11 11 12 11 8 7 7 7 8
10 14 17 18 18 17 20 21 19 20 17 17 17 15 14 15 16 16 15 14 14 13 11 10 10 11 11 10 9 10 11 11 12 12 15 17 14 12 11 11 10 10 12 12 9 7 6 5 5
13 16 17 16 15 12 14 17 17 17 15 16 16 15 15 15 15 15 15 14 14 14 12 11 11 10 12 12 11 10 11 11 11 12 16 17 16 14 12 11 10 9 12 12 8 8 6 5 5
13 11 10 11 10 10 10 16 16 13 14 16 15 14 14 14 15 15 15 13 13 12 11 10 11 10 11 11 11 10 11 11 11 12 14 17 18 17 12 11 10 11 11 8 7 7 6 6 5
5 8 15 15 10 11 11 18 18 15 16 16 14 14 13 13 13 13 12 10 11 11 10 10 10 10 10 11 10 11 11 12 11 12 12 15 18 19 13 11 10 13 9 7 7 7 7 7 6
11 14 17 18 13 16 17 21 20 16 15 13 12 12 13 13 13 12 10 9 9 9 9 9 9 10 9 9 9 9 11 11 11 11 13 16 17 19 14 12 13 12 10 8 8 8 7 6 6
13 15 19 21 18 16 19 22 20 16 12 10 10 10 12 12 12 10 8 7 7 7 7 9 9 9 9 9 10 10 11 11 11 12 14 17 17 19 16 13 14 12 10 10 10 8 9 6 5
13 15 17 17 16 17 18 22 18 12 9 8 8 8 10 12 10 8 6 6 7 8 8 9 9 9 9 10 10 9 10 10 11 11 13 16 17 18 17 16 14 13 11 12 11 9 7 6 6
13 13 15 19 21 14 14 13 11 8 6 6 7 8 9 11 10 8 6 7 6 7 8 9 9 9 9 10 8 8 9 9 9 12 13 14 16 17 16 17 15 14 13 12 12 11 9 8 7
12 12 16 19 15 9 7 9 9 8 7 8 8 8 9 11 10 9 6 6 6 6 6 8 8 7 7 7 9 11 11 11 11 11 12 14 16 17 17 17 16 15 12 12 12 10 8 10 9
10 14 17 19 16 13 10 7 7 7 8 8 9 9 10 11 11 10 7 6 6 6 6 6 7 6 5 5 8 11 11 8 9 11 13 14 14 15 17 17 15 15 13 13 13 11 10 8 8
11 12 15 12 7 6 6 6 5 5 8 9 10 10 11 12 12 10 8 7 7 6 6 5 6 6 5 5 7 9 11 11 13 14 14 13 12 13 16 17 15 15 13 14 13 12 12 9 8
8 7 5 5 3 5 6 4 2 4 6 7 9 11 11 11 11 11 10 9 8 7 7 6 6 6 5 5 7 8 10 12 14 14 14 14 12 12 16 16 16 14 13 13 13 12 12 11 11
6 4 3 4 5 8 7 3 1 4 6 8 9 10 11 12 11 11 11 8 8 8 7 7 6 6 5 5 6 6 8 9 10 13 13 14 12 12 16 16 16 15 15 14 13 11 11 11 11
4 3 4 5 8 7 5 3 3 6 8 9 11 12 13 13 12 12 11 11 10 9 8 7 6 6 5 5 4 5 7 8 9 12 13 12 11 12 16 17 16 16 16 15 14 11 12 11 11
5 4 3 3 5 6 6 5 4 8 10 12 12 12 13 14 13 11 11 11 10 9 9 7 6 6 5 4 4 4 5 7 8 9 13 13 13 13 16 17 17 17 16 15 13 11 11 12 11
3 3 3 4 5 5 6 4 3 5 7 9 10 11 12 12 12 11 11 10 10 10 9 8 7 6 5 4 3 4 5 6 8 9 10 11 12 15 16 16 17 17 17 16 14 13 13 13 12
3 4 3 3 6 5 6 6 3 4 6 7 9 10 10 10 10 11 11 10 10 10 10 9 8 7 5 4 3 3 3 6 8 9 10 11 11 13 16 16 16 17 16 16 16 16 15 14 14
Wind_Direction
306 281 256 246 241 232 240 239 249 265 265 267 296 291 281 269 276 269 142 101 102 132 146 161 165 169 169 168 165 163 160 158 156 155 153 150 147 144 142 139 136 134 130 127 123 120 117 114 110
299 284 258 233 233 236 241 233 242 250 266 282 291 290 282 276 298 79 110 86 106 133 144 161 167 171 171 170 168 165 163 161 158 156 154 152 150 147 145 141 138 135 131 127 124 123 120 116 114
283 269 242 229 229 234 245 248 248 250 259 276 271 265 265 275 292 324 91 87 99 132 148 160 167 173 173 173 171 169 166 163 159 157 156 154 152 150 147 143 139 135 132 129 127 126 123 120 118
288 245 240 241 242 242 256 271 286 288 282 273 280 272 257 264 307 27 71 74 83 131 149 158 166 174 175 175 174 171 168 164 161 160 159 157 154 152 148 144 140 137 135 133 132 130 127 124 122
259 248 239 241 248 254 263 274 284 286 284 282 279 270 270 293 11 26 47 79 82 139 150 161 169 174 176 177 176 173 170 167 164 162 160 158 155 152 148 144 142 140 139 138 135 133 130 127 125
252 241 243 248 254 256 257 265 274 277 280 282 284 273 267 287 329 354 355 23 163 167 153 162 173 175 178 179 178 174 171 169 166 164 162 159 156 153 150 147 145 144 143 140 138 136 134 130 128
258 256 252 262 270 274 280 293 285 287 287 291 302 285 273 281 358 355 346 331 295 215 164 166 176 178 179 179 179 175 172 171 168 166 162 159 156 155 153 149 147 146 144 142 140 138 135 133 131
282 272 262 263 270 275 294 304 296 296 292 303 302 281 279 313 342 337 329 319 301 268 186 176 181 182 181 180 180 176 174 172 168 165 160 156 155 155 153 150 149 148 146 144 142 138 136 135 135
273 250 256 263 280 291 309 306 302 306 295 289 284 284 294 317 326 324 316 302 283 266 221 190 189 190 183 181 182 176 174 170 166 162 155 151 153 153 153 149 149 148 147 145 143 139 137 136 139
221 247 258 279 295 299 303 303 302 294 288 286 284 287 297 306 305 299 292 285 272 247 242 212 199 198 191 184 177 176 176 170 167 163 159 157 156 156 153 148 148 147 146 145 144 142 142 141 147
244 256 274 288 295 297 295 294 294 285 277 278 282 287 292 292 288 281 279 272 266 256 233 227 208 199 198 189 182 180 175 171 170 168 167 161 154 149 144 147 144 145 145 143 144 147 160 158 156
272 274 281 284 292 292 291 291 290 279 276 280 282 284 281 277 273 267 267 269 261 260 246 226 215 201 199 197 189 184 180 178 175 173 170 161 156 152 152 151 151 153 153 148 156 170 170 151 159
278 280 285 289 287 284 284 280 282 278 276 276 275 274 269 268 268 268 263 262 257 252 252 232 218 206 200 199 194 187 183 182 176 174 171 163 158 158 157 156 158 160 155 158 167 169 155 151 168
286 293 291 287 283 278 277 279 276 274 275 276 275 272 269 264 262 264 264 260 257 248 247 242 225 213 202 200 197 191 186 181 176 175 171 164 161 159 160 157 160 160 157 163 165 162 153 151 152
292 289 286 275 271 275 287 281 270 272 276 278 276 272 269 268 263 259 258 254 254 252 245 241 230 218 207 201 200 195 188 181 176 177 170 166 161 159 159 157 159 158 158 159 163 157 148 144 144
281 277 283 291 291 290 283 278 284 287 285 279 276 272 269 266 262 257 258 256 252 249 244 243 238 222 212 205 202 195 188 183 176 175 172 168 162 160 158 156 159 157 157 159 159 151 145 145 151
276 299 300 306 298 302 290 287 292 294 288 282 281 280 276 273 267 262 257 256 259 249 243 240 238 220 217 209 207 199 189 185 176 173 175 171 164 161 159 158 158 157 156 158 160 152 150 154 160
304 305 302 302 301 303 294 290 297 295 290 289 289 289 283 279 274 271 264 257 260 253 241 238 243 227 220 213 209 200 188 184 177 176 176 171 167 163 161 158 159 158 158 160 160 156 156 157 156
297 295 296 298 303 304 295 292 295 290 288 291 294 297 297 289 284 275 271 263 262 263 259 247 243 232 220 211 205 196 186 182 180 177 175 172 169 167 163 162 162 162 163 164 162 158 158 157 147
299 295 296 303 312 309 295 291 290 289 291 293 303 307 311 304 302 295 291 286 260 251 253 253 245 233 228 218 204 197 186 181 183 175 175 173 172 170 166 164 164 164 164 165 167 159 156 164 156
299 294 302 307 313 298 290 289 285 293 308 324 326 325 327 321 315 307 300 298 278 252 247 249 249 233 231 223 200 191 179 174 181 178 175 177 174 172 168 166 164 166 167 170 170 167 161 166 171
297 300 304 303 305 295 300 299 299 316 334 342 341 346 342 337 329 321 314 312 299 278 262 252 256 241 236 223 202 190 185 185 185 179 175 175 176 172 170 167 166 168 169 170 173 168 163 163 173
295 303 298 289 283 283 275 266 289 329 336 341 351 352 347 340 332 327 319 314 311 303 282 263 263 254 243 232 212 193 186 185 175 174 174 178 179 173 171 168 169 171 171 171 172 169 168 170 174
309 311 297 277 265 270 263 260 302 339 342 349 355 352 349 345 338 335 331 323 325 327 314 271 260 258 247 238 221 193 181 181 177 174 177 179 178 174 174 171 172 173 172 173 174 173 173 176 176
328 333 327 328 274 259 310 288 298 360 6 4 355 354 353 352 348 346 345 344 336 330 325 303 275 269 261 244 228 198 186 185 182 177 178 179 177 177 177 176 175 174 174 173 172 173 177 178 179
301 303 306 300 291 305 310 276 309 20 19 17 7 358 355 354 350 347 347 344 342 337 330 323 304 284 268 249 226 204 199 190 184 183 179 181 182 179 175 177 176 174 174 175 174 176 179 180 182
294 282 276 273 279 279 271 280 296 356 10 12 7 2 356 353 350 350 348 347 344 338 332 324 317 302 280 266 232 208 207 197 189 185 180 182 182 178 177 177 176 176 175 177 176 179 179 180 184
249 300 319 290 295 290 288 288 310 356 0 0 359 356 352 353 350 347 346 344 342 337 332 326 324 310 297 285 237 224 222 202 189 188 184 182 182 177 177 178 178 178 177 178 179 178 179 179 182
233 253 263 268 269 286 296 290 336 2 356 350 349 349 345 346 347 346 344 343 341 341 340 337 331 326 316 307 266 224 223 213 193 189 186 182 182 179 177 178 178 179 180 180 182 183 180 182 183
217 231 227 255 274 266 280 279 313 349 353 350 343 339 338 343 346 345 344 342 344 343 343 339 334 328 315 307 288 244 224 215 198 191 189 185 184 182 177 177 180 181 182 183 185 185 184 185 186
Height
1489 1491 1494 1496 1496 1492 1482 1469 1462 1459 1456 1456 1456 1457 1458 1460 1462 1468 1464 1462 1461 1461 1462 1465 1467 1470 1473 1476 1480 1483 1486 1489 1492 1495 1498 1501 1503 1506 1508 1510 1513 1515 1517 1519 1521 1522 1523 1524 1525
1488 1491 1494 1494 1492 1487 1472 1463 1461 1458 1456 1456 1457 1458 1458 1458 1459 1461 1461 1461 1461 1462 1462 1464 1467 1470 1473 1476 1479 1482 1485 1488 1491 1495 1497 1500 1503 1506 1508 1510 1512 1515 1517 1519 1520 1522 1523 1524 1525
1488 1490 1492 1488 1482 1474 1463 1454 1453 1452 1455 1456 1456 1457 1458 1459 1460 1461 1460 1460 1461 1462 1462 1464 1466 1469 1472 1475 1479 1482 1485 1488 1491 1494 1497 1500 1503 1505 1508 1510 1512 1514 1516 1518 1520 1521 1523 1524 1525
1489 1490 1489 1484 1471 1461 1459 1456 1454 1453 1454 1455 1456 1456 1456 1459 1460 1460 1459 1459 1460 1462 1462 1463 1466 1468 1471 1474 1478 1481 1484 1487 1490 1493 1496 1499 1502 1505 1507 1509 1512 1514 1516 1518 1520 1521 1522 1524 1525
1488 1488 1485 1477 1466 1460 1457 1456 1455 1454 1453 1454 1455 1455 1455 1458 1457 1457 1458 1458 1459 1461 1462 1463 1465 1467 1470 1473 1476 1479 1483 1486 1489 1492 1495 1498 1501 1504 1506 1509 1511 1513 1515 1517 1519 1521 1522 1524 1525
1488 1484 1481 1471 1461 1457 1455 1456 1455 1454 1453 1454 1454 1453 1454 1456 1456 1456 1456 1457 1458 1459 1460 1461 1464 1466 1469 1472 1475 1478 1481 1484 1488 1491 1494 1497 1500 1502 1505 1508 1510 1512 1515 1517 1518 1520 1522 1524 1525
1487 1483 1476 1468 1462 1458 1456 1456 1455 1454 1453 1454 1454 1453 1452 1454 1454 1453 1453 1455 1457 1458 1458 1459 1462 1464 1467 1470 1473 1476 1479 1482 1486 1489 1492 1495 1498 1501 1504 1506 1509 1512 1514 1516 1518 1520 1522 1523 1525
1485 1483 1474 1468 1463 1458 1458 1457 1456 1456 1454 1455 1455 1452 1451 1452 1450 1450 1451 1452 1453 1455 1456 1457 1460 1462 1464 1467 1471 1474 1477 1480 1484 1487 1490 1493 1496 1499 1502 1505 1508 1510 1513 1515 1517 1519 1521 1523 1525
1484 1484 1475 1468 1464 1460 1459 1459 1457 1455 1453 1453 1452 1451 1451 1450 1448 1448 1449 1450 1451 1452 1453 1455 1457 1459 1461 1464 1467 1471 1474 1478 1481 1485 1488 1492 1495 1497 1500 1503 1506 1509 1512 1514 1516 1518 1520 1522 1525
1481 1479 1470 1466 1465 1462 1461 1461 1459 1455 1451 1450 1449 1448 1448 1447 1447 1447 1447 1447 1448 1448 1449 1451 1453 1455 1458 1461 1463 1467 1471 1474 1478 1481 1485 1489 1492 1495 1498 1501 1504 1507 1510 1513 1515 1517 1520 1522 1524
1476 1473 1468 1466 1466 1464 1461 1459 1458 1454 1449 1449 1447 1445 1445 1444 1444 1444 1444 1444 1444 1445 1445 1447 1449 1451 1453 1456 1459 1462 1466 1470 1474 1478 1481 1485 1489 1492 1495 1498 1502 1505 1508 1511 1514 1516 1519 1521 1523
1474 1470 1468 1466 1465 1463 1460 1457 1454 1451 1446 1445 1444 1442 1440 1440 1439 1439 1440 1440 1440 1440 1441 1442 1444 1446 1448 1451 1454 1457 1461 1465 1469 1473 1477 1481 1484 1488 1491 1495 1499 1502 1505 1508 1512 1515 1518 1520 1523
1472 1468 1466 1464 1462 1460 1457 1453 1450 1444 1441 1440 1438 1436 1435 1434 1434 1434 1434 1434 1435 1435 1435 1436 1438 1441 1443 1446 1449 1452 1456 1460 1464 1468 1473 1476 1480 1484 1488 1492 1496 1500 1503 1506 1510 1513 1516 1519 1522
1470 1467 1464 1461 1458 1455 1452 1446 1444 1436 1436 1434 1432 1430 1430 1429 1428 1428 1428 1428 1428 1429 1429 1431 1433 1435 1438 1440 1443 1446 1451 1455 1459 1463 1468 1472 1476 1480 1485 1489 1493 1497 1500 1504 1508 1511 1514 1518 1520
1469 1465 1460 1455 1451 1448 1447 1441 1436 1432 1431 1428 1426 1425 1424 1423 1422 1421 1421 1422 1422 1423 1424 1425 1427 1429 1431 1434 1437 1441 1445 1449 1453 1458 1462 1466 1471 1476 1481 1485 1490 1494 1498 1502 1506 1510 1513 1516 1519
1466 1462 1458 1449 1446 1445 1448 1438 1430 1428 1425 1422 1420 1419 1417 1416 1415 1414 1415 1415 1415 1416 1417 1418 1421 1422 1425 1428 1431 1434 1439 1443 1447 1452 1456 1461 1466 1471 1477 1481 1486 1491 1495 1499 1503 1507 1510 1513 1516
1463 1463 1456 1448 1444 1442 1442 1434 1425 1423 1420 1417 1415 1413 1411 1409 1408 1408 1408 1408 1408 1409 1411 1412 1414 1416 1419 1422 1425 1428 1431 1437 1441 1446 1452 1456 1461 1466 1472 1477 1482 1487 1491 1495 1500 1504 1507 1511 1514
1466 1462 1455 1449 1442 1440 1436 1429 1421 1418 1416 1412 1410 1408 1406 1404 1402 1402 1402 1402 1402 1403 1405 1406 1408 1410 1412 1415 1418 1421 1424 1430 1435 1440 1445 1451 1456 1460 1467 1472 1478 1482 1487 1492 1496 1500 1505 1508 1512
1463 1461 1456 1446 1439 1438 1433 1425 1418 1413 1410 1408 1406 1404 1402 1399 1397 1396 1396 1396 1396 1397 1398 1400 1402 1404 1406 1409 1410 1412 1416 1422 1428 1434 1439 1445 1450 1455 1461 1467 1473 1478 1482 1487 1492 1497 1501 1505 1509
1461 1459 1453 1442 1437 1436 1429 1420 1413 1407 1405 1404 1402 1400 1398 1395 1393 1391 1390 1391 1391 1392 1393 1395 1396 1398 1400 1402 1404 1405 1410 1416 1421 1427 1433 1438 1444 1449 1455 1461 1467 1472 1478 1483 1488 1492 1497 1501 1505
1459 1457 1451 1445 1438 1432 1428 1417 1407 1402 1401 1399 1399 1398 1395 1393 1390 1388 1386 1385 1386 1387 1388 1390 1391 1392 1394 1397 1399 1401 1405 1410 1415 1420 1426 1433 1438 1444 1450 1455 1462 1468 1473 1478 1483 1488 1492 1496 1501
1459 1451 1448 1444 1444 1438 1430 1428 1408 1403 1399 1397 1396 1395 1394 1391 1389 1386 1384 1383 1382 1383 1384 1385 1386 1387 1388 1390 1391 1393 1396 1401 1407 1413 1420 1428 1433 1439 1445 1450 1457 1463 1468 1473 1478 1483 1488 1492 1496
1454 1449 1445 1440 1439 1437 1427 1428 1411 1403 1401 1399 1398 1396 1394 1392 1388 1385 1383 1381 1380 1380 1380 1380 1381 1382 1383 1384 1386 1388 1392 1398 1404 1410 1414 1422 1428 1433 1439 1445 1452 1458 1463 1469 1474 1479 1484 1488 1491
1452 1448 1441 1433 1434 1439 1422 1422 1414 1408 1406 1401 1399 1397 1394 1391 1387 1383 1380 1379 1377 1376 1376 1377 1377 1377 1379 1381 1382 1383 1387 1393 1399 1403 1409 1416 1422 1428 1434 1440 1447 1453 1458 1464 1469 1474 1479 1483 1487
1455 1458 1457 1450 1443 1432 1412 1414 1415 1408 1404 1402 1400 1398 1395 1391 1387 1382 1378 1376 1375 1373 1373 1373 1373 1374 1375 1377 1378 1379 1384 1389 1393 1398 1404 1410 1415 1421 1427 1434 1441 1447 1453 1459 1465 1469 1474 1479 1483
1457 1458 1466 1466 1450 1430 1416 1415 1413 1406 1404 1403 1401 1398 1394 1391 1387 1384 1380 1377 1374 1372 1371 1370 1369 1371 1372 1373 1375 1377 1381 1385 1389 1394 1399 1405 1410 1415 1423 1429 1436 1442 1448 1454 1459 1464 1469 1474 1478
1457 1456 1454 1459 1451 1442 1424 1413 1408 1404 1403 1402 1400 1398 1395 1392 1389 1385 1381 1377 1374 1372 1370 1368 1367 1367 1369 1370 1371 1373 1377 1380 1384 1389 1395 1401 1406 1412 1418 1425 1431 1437 1443 1449 1454 1459 1464 1469 1473
1455 1454 1457 1460 1457 1445 1426 1418 1416 1409 1406 1403 1402 1400 1397 1393 1389 1385 1381 1377 1374 1371 1369 1366 1365 1365 1365 1366 1368 1369 1372 1376 1381 1386 1391 1397 1403 1408 1413 1419 1425 1432 1438 1444 1449 1454 1459 1464 1468
1455 1456 1456 1456 1452 1451 1438 1425 1412 1411 1408 1406 1404 1402 1399 1395 1390 1386 1382 1378 1374 1371 1368 1366 1364 1363 1363 1365 1365 1368 1371 1374 1378 1381 1386 1392 1398 1404 1409 1414 1420 1426 1432 1438 1444 1449 1454 1458 1463
1449 1452 1455 1462 1457 1447 1443 1428 1409 1409 1407 1406 1404 1402 1399 1395 1391 1387 1383 1379 1375 1371 1368 1365 1364 1362 1362 1362 1364 1366 1367 1370 1373 1377 1382 1388 1394 1399 1405 1409 1415 1421 1427 1432 1438 1443 1448 1453 1457